Location: Corte Bragagnani
(45.3000°N, 11.1000°E)
Time: 13:45:21
(UTC+00:00)

CZ-2C R/B - Visible Passes

Search period start: 06 August 2020 00:00
Search period end: 16 August 2020 00:00
Orbit: 784 x 871 km, 98.3° (Epoch: 05 August)

Date Brightness Start Highest point End Pass type
(mag) Time Alt. Az. Time Alt. Az. Time Alt. Az.
06 Aug 2.6 19:16:07 10° NNE 19:21:19 87° ESE 19:26:31 10° SSW visible
06 Aug 5.5 20:58:10 10° NNW 21:00:53 15° WNW 21:03:37 10° W visible
07 Aug 2.6 18:57:34 10° NNE 19:02:42 61° E 19:07:50 10° S visible
07 Aug 5.2 20:38:52 10° NNW 20:42:33 20° WNW 20:46:15 10° WSW visible
08 Aug 4.7 20:19:50 10° N 20:24:10 28° WNW 20:28:30 10° WSW visible
09 Aug 4.1 20:00:57 10° N 20:05:43 39° WNW 20:10:31 10° SW visible
10 Aug 3.3 19:42:10 10° N 19:47:14 55° WNW 19:52:18 10° SSW visible
11 Aug 2.7 19:23:30 10° NNE 19:28:41 80° WNW 19:33:55 10° SSW visible
11 Aug 5.6 21:06:04 10° NNW 21:08:09 12° NW 21:10:15 10° W visible
12 Aug 2.5 19:04:55 10° NNE 19:10:06 72° ESE 19:15:20 10° S visible
12 Aug 5.4 20:46:31 10° NNW 20:49:51 17° WNW 20:53:10 10° W visible
13 Aug 4.9 20:27:22 10° N 20:31:28 24° WNW 20:35:35 10° WSW visible
14 Aug 4.3 20:08:26 10° N 20:13:03 33° WNW 20:17:42 10° SW visible
15 Aug 3.7 19:49:37 10° N 19:54:35 47° WNW 19:59:35 10° SW visible
